Showing default

FLOCK 4Q 30, 58286

Orbit data source: Space-Track

FLOCK 4Q 30, 58286 is a payload satellite owned by Planet (US) in SSO that was launched on Sat, 11 Nov 2023 UTC via an FALCON 9 launch vehicle from the Air Force Western Test Range (AFWTR). Payload-class satellites include a variety of spacecraft equipped with specific instruments for various scientific and technological missions. These include communications satellites like Starlink; space stations such as the ISS; scientific satellites like the Hubble; Earth observation satellites from companies like Planet Labs, Umbra, and HawkEye 360; GPS; miniature CubeSats for education and research; and military/defense satellites.

Loading next visibility...
Identifier
58286, 2023-174AG
Orbit
SSO
Country
Flag of USUS
Related business
Manufacturer
Planet
Mission
Non-operational Commercial Imaging
Bus & Motor
CUBESAT 3U, Unknown motor
Mass
5.7 kg wet, 5.7 kg dry
Launch date (UTC)
2023-11-11 (3 years ago)
Launch vehicle
FALCON 9
Launch site
Air Force Western Test Range (AFWTR)
Object type
Payload
Rocket body
Debris
Shape & HBR
Box + 2 Pan, 1.0 m
Radar Cross Section
0.072 m², Medium (>0.1 m² and < 1m²)

Expand to show TLE details & history
Last TLE update: 3 days ago

TLE from 3 days ago
0 FLOCK 4Q 30
1 58286U 23174AG  26170.78171947  .00033096  00000-0  43237-3 0  9999
2 58286  97.3915 263.2961 0006769 150.9479 209.2155 15.58572241146204
Epoch: 2026-06-19T18:45Z
TLE epoch observation values (Epoch: 2026-06-19T18:45:40.562Z)
Latitude
0.00001°
Longitude
73.87133°
Altitude
398.933 km
Speed
7.669 km/s
True Right ascension
17h 33m 11s
True Declination
0° 00' 00"
Sunlit
Object was in full shadow at epoch
Visualization orbit readout
Latitude
Unknown
Longitude
Unknown
Altitude
Unknown
Speed
Unknown
Apparent Right ascension
Unknown
Apparent Declination
Unknown
Sunlit
N/A
Visualization observer readout
Local Sidereal Time
21:37:10
Azimuth
Unknown
Elevation
Unknown
Doppler factor
Unknown
Orbital elements
Apogee altitude
393.283 km
Perigee altitude
384.122 km
Semi-major axis
6,766.839 km
Eccentricity
0.00068
Inclination
97.3915°
RAAN
263.2961°
Arg. of periapsis
150.9479°
True anomaly
209.17767°
Mean anomaly
209.2155°
Eccentric anomaly
209.19658°
Mean motion
3.8991 °/min
Orbital period
92.33 mins
BSTAR
0.00043237
Loading maneuver chart data...
Computing Atmospheric mass density...

Documentation

Showing up to 5 results
|